Stations météo

réclame
Mon MeteoGroup
Voorschoten AWS, Pays-Bas (6215): Température de l'air & dewpoint: 16.10.2017 10:00:00 - 22.10.2017 10:00:00 (CEST)Voorschoten AWS, Pays-Bas (6215): Température de l'air 5cm: 16.10.2017 10:00:00 - 22.10.2017 10:00:00 (CEST)Voorschoten AWS, Pays-Bas (6215): Vitesse du vent & gusts: 16.10.2017 10:00:00 - 22.10.2017 10:00:00 (CEST)Voorschoten AWS, Pays-Bas (6215): Direction du vent: 16.10.2017 10:00:00 - 22.10.2017 10:00:00 (CEST)Voorschoten AWS, Pays-Bas (6215): reduced air pressure: 16.10.2017 10:00:00 - 22.10.2017 10:00:00 (CEST)Voorschoten AWS, Pays-Bas (6215): visibility: 16.10.2017 10:00:00 - 22.10.2017 10:00:00 (CEST)Voorschoten AWS, Pays-Bas (6215): Quantités de précipitations: 16.10.2017 10:00:00 - 22.10.2017 10:00:00 (CEST)
Date & Time tt [°C] td [°C] tt 5cm [°C] ff [km/h] ff [knt] fx [km/h] fx [knt] dd ppp [hPa] vv [km] rr [mm]
22.10.2017 10:00:00 - - - - - - - - - - -
22.10.2017 09:00:00 12,4 8,5 11,6 22 12 47 25 W 1006,7 37 0,0
22.10.2017 08:00:00 12,5 9,5 11,6 22 12 43 23 W 1005,8 29 1,3
22.10.2017 07:00:00 12,4 10,5 11,8 22 12 47 25 WSW 1005,2 12 0,6
22.10.2017 06:00:00 11,2 10,4 11,0 18 10 32 18 SSW 1004,8 11 1,2
22.10.2017 05:00:00 10,5 9,6 10,3 22 12 40 21 SSW 1004,5 11 2,4
22.10.2017 04:00:00 10,1 8,8 10,0 32 18 50 27 SSW 1004,6 4,5 0,5
22.10.2017 03:00:00 10,5 8,2 10,2 32 18 54 29 S 1005,1 7 0,5
22.10.2017 02:00:00 11,3 7,4 10,8 40 21 54 29 S 1005,2 19 0,0
22.10.2017 01:00:00 11,8 7,1 11,2 32 18 61 33 S 1005,8 31 0,0
22.10.2017 00:00:00 11,8 7,5 11,2 32 18 50 27 S 1006,3 31 0,0
21.10.2017 23:00:00 12,5 7,6 11,5 32 18 58 31 SSW 1006,7 31 0,0
21.10.2017 22:00:00 12,3 7,4 11,4 32 18 54 29 SSW 1006,9 42 0,0
21.10.2017 21:00:00 12,6 7,4 11,4 29 16 50 27 SSW 1007,1 34 0,0
21.10.2017 20:00:00 12,7 7,7 11,5 29 16 47 25 SSW 1007,7 35 0,0
21.10.2017 19:00:00 12,4 8,6 11,6 25 14 50 27 SSW 1007,5 43 0,3
21.10.2017 18:00:00 13,4 8,5 12,9 36 19 58 31 SW 1007,8 16 0,2
21.10.2017 17:00:00 14,4 9,3 13,6 32 18 65 35 SSW 1007,4 17 0,2
21.10.2017 16:00:00 16,3 9,6 15,6 32 18 54 29 SSW 1007,4 26 0,0
21.10.2017 15:00:00 16,5 9,7 15,8 36 19 50 27 SSW 1007,4 30 0,0
21.10.2017 14:00:00 16,1 10,2 16,2 36 19 58 31 SSW 1007,5 27 0,0
21.10.2017 13:00:00 16,3 10,8 16,4 32 18 54 29 SSW 1007,7 21 0,0
21.10.2017 12:00:00 15,5 12,4 14,9 29 16 54 29 SSW 1007,7 30 0,0
21.10.2017 11:00:00 14,8 12,5 14,6 25 14 43 23 SSW 1007,5 27 0,0
21.10.2017 10:00:00 13,6 12,1 13,2 22 12 40 21 S 1007,2 24 0,0
21.10.2017 09:00:00 12,4 11,4 11,9 22 12 32 18 S 1007,0 19 0,6
21.10.2017 08:00:00 11,9 9,3 11,5 22 12 - - S 1007,0 17 0,1
21.10.2017 07:00:00 11,7 8,5 11,0 18 10 29 16 SSE 1007,3 31 0,0
21.10.2017 06:00:00 11,5 8,3 11,0 18 10 25 14 SSE 1008,0 34 0,0
21.10.2017 05:00:00 11,2 8,2 10,3 11 6 - - SSE 1008,6 31 0,0
21.10.2017 04:00:00 12,0 8,3 11,4 14 8 22 12 SSE 1009,2 31 0,0
21.10.2017 03:00:00 11,9 8,6 11,1 14 8 25 14 S 1010,0 28 0,0
21.10.2017 02:00:00 11,8 8,8 11,2 11 6 - - SSE 1010,5 25 0,0
21.10.2017 01:00:00 11,9 8,6 11,2 18 10 36 19 SSW 1010,8 23 0,0
21.10.2017 00:00:00 12,6 8,8 12,2 18 10 25 14 SSW 1011,0 22 0,0
20.10.2017 23:00:00 13,3 8,3 12,2 22 12 - - SW 1010,9 22 0,0
20.10.2017 22:00:00 13,7 7,8 13,1 36 19 50 27 SW 1010,7 21 0,0
20.10.2017 21:00:00 14,1 8,8 13,5 29 16 58 31 SW 1010,0 20 0,0
20.10.2017 20:00:00 14,1 9,7 13,4 29 16 58 31 SW 1009,5 17 0,0
20.10.2017 19:00:00 14,2 10,4 13,3 32 18 50 27 SW 1008,6 28 0,1
20.10.2017 18:00:00 13,6 10,6 13,1 36 19 58 31 SW 1008,1 8 0,0
20.10.2017 17:00:00 13,9 10,7 13,4 29 16 50 27 SW 1007,5 7 0,0
20.10.2017 16:00:00 13,9 10,7 13,5 32 18 58 31 SW 1006,6 33 0,0
20.10.2017 15:00:00 13,4 11,8 13,2 29 16 54 29 SSW 1006,0 26 0,4
20.10.2017 14:00:00 13,3 11,1 13,1 40 21 54 29 SSW 1005,5 21 1,0
20.10.2017 13:00:00 13,0 10,6 12,6 32 18 58 31 S 1005,3 25 0,0
20.10.2017 12:00:00 13,4 9,9 13,1 36 19 54 29 S 1005,0 21 0,1
20.10.2017 11:00:00 13,9 10,3 13,9 32 18 54 29 S 1004,9 22 0,0
20.10.2017 10:00:00 14,0 10,9 13,4 32 18 50 27 SSW 1004,7 41 0,0
20.10.2017 09:00:00 13,3 11,4 12,4 22 12 32 18 SSW 1004,2 41 0,0
20.10.2017 08:00:00 12,3 10,6 11,9 18 10 47 25 SSW 1003,9 20 7,5
20.10.2017 07:00:00 15,4 12,3 14,8 18 10 32 18 S 1003,2 25 0,0
20.10.2017 06:00:00 15,7 12,0 14,6 22 12 36 19 SSE 1003,5 48 0,0
20.10.2017 05:00:00 15,6 12,1 14,4 14 8 32 18 S 1004,1 47 0,0
20.10.2017 04:00:00 15,7 12,6 14,3 14 8 25 14 SSE 1004,4 45 0,0
20.10.2017 03:00:00 16,1 13,2 14,7 14 8 25 14 SSE 1005,1 40 0,0
20.10.2017 02:00:00 16,8 13,9 15,6 18 10 25 14 SSE 1005,5 38 0,0
20.10.2017 01:00:00 16,5 14,2 15,9 18 10 36 19 S 1005,5 46 0,5
20.10.2017 00:00:00 17,5 14,1 16,4 25 14 40 21 SSE 1005,8 24 0,0
19.10.2017 23:00:00 16,2 13,2 14,4 11 6 18 10 SE 1006,0 39 0,0
19.10.2017 22:00:00 16,3 13,6 15,0 11 6 14 8 SE 1006,1 30 0,0
19.10.2017 21:00:00 16,0 13,2 14,7 11 6 22 12 SE 1006,4 28 0,0
19.10.2017 20:00:00 16,7 13,4 14,8 14 8 18 10 SE 1006,5 31 0,0
19.10.2017 19:00:00 17,9 13,4 16,3 14 8 25 14 SSE 1006,9 38 0,0
19.10.2017 18:00:00 19,1 14,3 18,3 18 10 22 12 SE 1006,6 27 0,0
19.10.2017 17:00:00 19,4 14,1 18,6 18 10 29 16 SE 1006,5 30 0,0
19.10.2017 16:00:00 19,9 14,5 20,0 18 10 25 14 SE 1007,0 21 0,0
19.10.2017 15:00:00 18,5 14,0 18,4 18 10 25 14 ESE 1007,6 18 0,0
19.10.2017 14:00:00 18,9 13,6 19,4 18 10 25 14 SE 1008,3 20 0,0
19.10.2017 13:00:00 18,5 13,7 18,9 18 10 25 14 SE 1009,2 22 0,0
19.10.2017 12:00:00 16,7 12,7 17,0 14 8 25 14 SE 1009,5 16 0,0
19.10.2017 11:00:00 15,4 13,1 15,3 14 8 22 12 SE 1010,0 12 0,0
19.10.2017 10:00:00 13,9 12,6 13,4 14 8 22 12 SE 1010,3 9 0,0
19.10.2017 09:00:00 12,4 11,8 11,6 11 6 14 8 SE 1010,2 5 0,0
19.10.2017 08:00:00 12,0 11,6 10,7 7 4 11 6 ESE 1010,1 3,2 0,0
19.10.2017 07:00:00 11,4 11,1 8,6 7 4 7 4 SE 1010,5 0,9 0,0
19.10.2017 06:00:00 11,0 10,8 8,1 4 2 7 4 ESE 1010,6 0,3 0,0
19.10.2017 05:00:00 10,5 10,3 7,9 4 2 7 4 SE 1010,9 0,2 0,0
19.10.2017 04:00:00 9,8 9,7 8,2 4 2 7 4 SSW 1011,3 0,1 0,0
19.10.2017 03:00:00 10,5 10,4 8,5 4 2 7 4 E 1011,4 0,2 0,0
19.10.2017 02:00:00 12,2 11,9 9,3 4 2 4 2 ESE 1011,4 0,2 0,0
19.10.2017 01:00:00 13,3 12,6 11,3 4 2 7 4 SE 1011,6 2,5 0,0
19.10.2017 00:00:00 14,2 13,2 13,8 4 2 7 4 SE 1011,6 3,9 0,0
18.10.2017 23:00:00 14,0 13,2 13,3 4 2 7 4 SSE 1011,9 4,1 0,0
18.10.2017 22:00:00 13,6 12,7 12,6 4 2 7 4 E 1011,9 4,8 0,0
18.10.2017 21:00:00 12,9 12,1 11,4 4 2 7 4 SE 1012,0 4,5 0,0
18.10.2017 20:00:00 13,3 12,1 11,0 4 2 11 6 SE 1012,1 4,4 0,0
18.10.2017 19:00:00 15,0 12,9 14,2 11 6 14 8 ESE 1011,9 7 0,0
18.10.2017 18:00:00 16,3 13,3 15,9 11 6 18 10 SE 1012,0 8 0,0
18.10.2017 17:00:00 16,9 13,5 16,7 11 6 18 10 ESE 1011,8 10 0,0
18.10.2017 16:00:00 17,3 13,7 18,0 11 6 18 10 E 1012,0 10 0,0
18.10.2017 15:00:00 17,6 13,8 18,9 11 6 18 10 ESE 1012,2 10 0,0
18.10.2017 14:00:00 17,2 13,6 19,1 11 6 18 10 E 1012,8 10 0,0
18.10.2017 13:00:00 16,2 12,8 18,2 11 6 - - E 1013,2 10 -
18.10.2017 12:00:00 15,2 12,3 16,1 11 6 18 10 E 1013,3 11 0,0
18.10.2017 11:00:00 14,3 11,4 14,9 11 6 22 12 E 1013,8 11 0,0
18.10.2017 10:00:00 13,5 10,5 13,5 11 6 - - E 1013,9 15 -
18.10.2017 09:00:00 12,4 10,5 11,9 11 6 18 10 E 1013,9 14 0,0
18.10.2017 08:00:00 12,6 10,8 12,1 7 4 14 8 ENE 1014,1 14 0,0
18.10.2017 07:00:00 12,0 10,4 11,2 7 4 11 6 ENE 1014,4 13 0,0
18.10.2017 06:00:00 12,4 10,7 11,8 4 2 11 6 NE 1014,6 13 0,0
18.10.2017 05:00:00 12,1 10,7 11,8 7 4 11 6 ENE 1015,2 13 0,0
18.10.2017 04:00:00 11,5 11,2 11,6 0 0 4 2 N 1016,0 17 0,0
18.10.2017 03:00:00 11,1 10,7 11,2 4 2 4 2 ESE 1016,4 17 0,0
18.10.2017 02:00:00 10,5 10,1 10,4 4 2 7 4 E 1016,7 19 0,0
18.10.2017 01:00:00 9,2 8,9 8,3 0 0 7 4 N 1017,1 14 0,0
18.10.2017 00:00:00 7,3 6,9 6,6 0 0 4 2 N 1017,4 1,5 0,0
17.10.2017 23:00:00 8,7 8,4 6,9 0 0 4 2 N 1018,0 2,1 0,0
17.10.2017 22:00:00 9,0 8,6 7,3 4 2 7 4 SSE 1017,9 17 0,0
17.10.2017 21:00:00 9,6 8,6 8,4 4 2 7 4 SSW 1018,4 19 0,0
17.10.2017 20:00:00 9,7 8,4 8,7 7 4 7 4 SSE 1018,6 17 0,0
17.10.2017 19:00:00 10,9 8,5 10,4 7 4 11 6 SSW 1018,6 20 0,0
17.10.2017 18:00:00 13,7 9,1 12,9 7 4 18 10 SW 1018,7 22 0,0
17.10.2017 17:00:00 14,4 8,9 13,9 14 8 25 14 WSW 1019,3 24 0,0
17.10.2017 16:00:00 14,8 8,6 14,4 14 8 25 14 WSW 1019,7 25 0,0
17.10.2017 15:00:00 14,6 7,5 14,1 18 10 29 16 WSW 1020,2 37 0,0
17.10.2017 14:00:00 14,9 8,8 14,6 22 12 32 18 SW 1020,8 22 0,0
17.10.2017 13:00:00 15,0 11,5 14,9 14 8 25 14 SW 1021,2 13 0,0
17.10.2017 12:00:00 14,9 12,1 14,9 14 8 22 12 SSW 1021,1 13 0,0
17.10.2017 11:00:00 14,8 11,7 14,7 14 8 22 12 SSW 1021,1 13 0,0
17.10.2017 10:00:00 13,7 11,1 13,5 14 8 18 10 SSW 1021,0 13 0,0
17.10.2017 09:00:00 13,1 10,3 12,0 11 6 18 10 SSW 1020,8 13 0,0
17.10.2017 08:00:00 11,8 9,2 11,1 11 6 18 10 SSW 1020,6 14 0,0
17.10.2017 07:00:00 13,8 9,9 12,7 14 8 22 12 SW 1020,4 14 0,0
17.10.2017 06:00:00 14,4 9,9 13,2 14 8 32 18 SW 1020,2 14 0,0
17.10.2017 05:00:00 14,8 10,1 13,8 22 12 32 18 WSW 1020,1 15 0,0
17.10.2017 04:00:00 15,3 10,2 14,4 18 10 36 19 SW 1020,0 16 0,0
17.10.2017 03:00:00 15,8 9,6 14,7 18 10 36 19 SW 1020,2 19 0,0
17.10.2017 02:00:00 16,0 11,0 14,9 18 10 32 18 SW 1019,8 16 0,0
17.10.2017 01:00:00 16,5 11,1 15,5 22 12 40 21 SW 1019,6 17 0,0
17.10.2017 00:00:00 17,3 12,5 16,5 18 10 36 19 SW 1019,5 16 0,0
16.10.2017 23:00:00 18,3 14,6 17,5 22 12 32 18 SW 1019,1 16 0,0
16.10.2017 22:00:00 19,2 14,8 18,3 22 12 32 18 SW 1018,6 23 0,0
16.10.2017 21:00:00 20,1 14,4 18,8 18 10 25 14 SSW 1018,2 38 0,0
16.10.2017 20:00:00 20,2 16,1 19,0 14 8 22 12 S 1017,9 31 0,0
16.10.2017 19:00:00 21,1 16,0 19,9 14 8 25 14 S 1017,5 35 0,0
16.10.2017 18:00:00 22,1 16,4 20,8 18 10 29 16 SSE 1017,4 36 0,0
16.10.2017 17:00:00 23,5 16,4 22,5 18 10 29 16 S 1017,6 38 0,0
16.10.2017 16:00:00 24,0 16,4 23,1 18 10 29 16 S 1018,1 42 0,0
16.10.2017 15:00:00 23,8 16,8 23,7 14 8 29 16 S 1018,6 32 0,0
16.10.2017 14:00:00 22,7 16,4 22,9 14 8 32 18 S 1019,4 30 0,0
16.10.2017 13:00:00 21,6 16,2 22,2 18 10 29 16 S 1019,6 25 0,0
16.10.2017 12:00:00 20,9 16,1 21,2 18 10 22 12 S 1019,8 28 0,0
16.10.2017 11:00:00 19,8 15,7 19,6 18 10 29 16 S 1019,9 29 0,0
16.10.2017 10:00:00 18,3 15,2 17,6 18 10 25 14 S 1019,5 24 0,0

tt = Température de l'air
td = dewpoint
tt 5cm = Température de l'air 5cm
ff = Vitesse du vent
fx = gusts
dd = Direction du vent
ppp = reduced air pressure
vv = visibility
rr = Quantités de précipitations

stations d'obs. à proximité